Regional Weather Roundup
Issued by NWS Goodland, KS

Home | Current Version | Previous Version | Text Only | Print | Product List | Glossary On
Versions: 1 2 3 4 5 6 7 8 9 10 11 12 13 14 15 16 17 18 19 20 21 22 23 24 25 26 27 28 29 30 31 32 33 34 35 36 37 38 39 40 41 42 43 44 45 46 47 48 49 50
000
ASUS43 KGLD 221008
RWRGLD

GOODLAND FORECAST AREA HOURLY WEATHER ROUNDUP
NATIONAL WEATHER SERVICE GOODLAND KS
400 AM MDT TUE JUL 22 2014

...OFFICIAL OBSERVATIONS...

CITY           SKY/WX    TMP DP  RH WIND       PRES   REMARKS
GOODLAND KS    CLEAR     66  60  81 VRB7G20   30.10R
HILL CITY KS   CLEAR     70  60  70 W3        30.02S
IMPERIAL NEB   PTCLDY    68  60  75 W7        30.02F
MCCOOK NEB     CLEAR     68  63  84 W7        30.02S
AKRON CO       PTCLDY    74  53  48 S14G24    30.17R
BURLINGTON CO  CLEAR     70  57  63 NW14G20   30.14R
LIMON CO       CLEAR     63  56  78 CALM      30.23R
$$

...UNOFFICIAL OBSERVATIONS...

CITY           SKY/WX    TMP DP  RH WIND       PRES   REMARKS
COLBY KS       CLEAR     68  63  83 W14       30.09R
GOVE KS          N/A     69  32  25 MISG        N/A
LENORA KS        N/A     68  32  26 MISG        N/A
NORTON KS      CLEAR     68  57  68 CALM      30.03R
OBERLIN KS     FAIR      72  61  68 S7G16     30.06R
SHARON SPRINGS   N/A     65  60  85 S10         N/A
ST FRANCIS KS  CLEAR     75  55  50 SW16      30.06F
WAKEENEY KS      N/A     72  54  53 MISG        N/A
KIT CARSON CO    N/A     66  57  73 CALM        N/A
YUMA CO          N/A     83  44  25 SE12        N/A
$$


USA.gov is the U.S. government's official web portal to all federal, state and local government web resources and services.